Weather reports worldwide

Advertisment
Charlwood, United Kingdom (3769): temperature & dewpoint: 18.06.2017 04:00:00 - 24.06.2017 04:00:00 (BST)Charlwood, United Kingdom (3769): temperature 5cm: 18.06.2017 04:00:00 - 24.06.2017 04:00:00 (BST)Charlwood, United Kingdom (3769): temperature -20cm & temperature -100cm: 18.06.2017 04:00:00 - 24.06.2017 04:00:00 (BST)Charlwood, United Kingdom (3769): wind speed: 18.06.2017 04:00:00 - 24.06.2017 04:00:00 (BST)Charlwood, United Kingdom (3769): wind direction: 18.06.2017 04:00:00 - 24.06.2017 04:00:00 (BST)Charlwood, United Kingdom (3769): reduced air pressure: 18.06.2017 04:00:00 - 24.06.2017 04:00:00 (BST)Charlwood, United Kingdom (3769): visibility: 18.06.2017 04:00:00 - 24.06.2017 04:00:00 (BST)Charlwood, United Kingdom (3769): sunshine duration: 18.06.2017 04:00:00 - 24.06.2017 04:00:00 (BST)Charlwood, United Kingdom (3769): precipitation: 18.06.2017 04:00:00 - 24.06.2017 04:00:00 (BST)
Date & Time tt [°C] td [°C] tt 5cm [°C] tt -20cm [°C] tt -100cm [°C] ff [km/h] ff [kn] dd ppp [hPa] vv [km] sd [min] rr [mm]
24.06.2017 04:00:00 15,9 13,7 - - - 11 6 WSW 1015,2 18 0 0,0
24.06.2017 03:00:00 15,8 13,6 - - - 13 7 SW 1015,6 18 0 0,0
24.06.2017 02:00:00 15,6 13,5 - - - 16 9 SW 1016,0 15 0 0,0
24.06.2017 01:00:00 15,3 12,9 - - - 13 7 SW 1016,4 19 - 0,0
24.06.2017 00:00:00 15,8 13,5 - - - 16 9 WSW 1016,4 21 0 0,0
23.06.2017 23:00:00 16,2 14,0 - - - 16 9 SW 1016,6 18 0 0,0
23.06.2017 22:00:00 16,4 14,1 - - - 13 7 SW 1017,0 20 0 0,0
23.06.2017 21:00:00 17,2 13,8 - - - 15 8 SW 1016,9 24 6 0,0
23.06.2017 20:00:00 18,7 13,7 - - - 16 9 SW 1017,0 28 18 0,0
23.06.2017 19:00:00 18,8 13,1 - - - 16 9 SW 1016,7 45 0 0,0
23.06.2017 18:00:00 19,2 13,2 - - - 15 8 WSW 1017,0 35 0 0,0
23.06.2017 17:00:00 19,9 13,6 - - - 21 11 SW 1016,8 30 0 0,0
23.06.2017 16:00:00 20,4 14,2 - - - 16 9 WSW 1016,5 35 0 0,0
23.06.2017 15:00:00 20,7 13,5 - - - 16 9 SW 1016,9 30 36 0,0
23.06.2017 14:00:00 21,5 12,9 - - - 21 11 WSW 1016,7 22 54 0,0
23.06.2017 13:00:00 20,9 11,4 - - - 16 9 WSW 1016,7 35 60 0,0
23.06.2017 12:00:00 20,4 12,9 - - - 16 9 WSW 1017,1 45 54 0,0
23.06.2017 11:00:00 19,1 12,3 - - - 18 10 WSW 1017,2 45 54 0,0
23.06.2017 10:00:00 16,9 11,1 - 20,7 16,0 16 9 W 1017,2 30 42 0,0
23.06.2017 09:00:00 16,2 11,0 - - - 16 9 WSW 1017,0 25 60 0,0
23.06.2017 08:00:00 15,1 10,8 - - - 13 7 W 1016,6 30 60 0,0
23.06.2017 07:00:00 14,0 10,9 - - - 8 4 W 1016,3 18 42 0,0
23.06.2017 06:00:00 12,4 10,4 - - - 11 6 WSW 1016,2 25 0 0,0
23.06.2017 05:00:00 11,4 10,6 - - - 5 3 W 1016,0 29 0 0,0
23.06.2017 04:00:00 12,5 10,9 - - - 9 5 W 1015,8 45 0 0,0
23.06.2017 03:00:00 12,5 10,6 - - - 5 3 WSW 1015,6 40 0 0,0
23.06.2017 02:00:00 14,1 11,1 - - - 15 8 WSW 1015,4 45 0 0,0
23.06.2017 01:00:00 14,6 11,9 - - - 9 5 WSW 1015,0 45 - 0,0
23.06.2017 00:00:00 15,4 12,8 - - - 9 5 WSW 1015,1 35 0 0,0
22.06.2017 23:00:00 16,5 12,9 - - - 8 4 W 1015,0 45 0 0,0
22.06.2017 22:00:00 16,4 12,8 - - - 5 3 SW 1014,4 45 0 0,0
22.06.2017 21:00:00 18,3 12,8 - - - 9 5 W 1013,6 50 6 0,0
22.06.2017 20:00:00 20,0 13,1 - - - 15 8 W 1013,4 40 24 0,0
22.06.2017 19:00:00 20,9 14,5 - - - 11 6 WSW 1013,2 50 0 0,0
22.06.2017 18:00:00 21,2 14,4 - - - 11 6 W 1012,9 35 0 0,0
22.06.2017 17:00:00 20,9 14,3 - - - 15 8 W 1012,7 30 0 0,0
22.06.2017 16:00:00 21,3 14,3 - - - 15 8 W 1012,3 45 18 0,0
22.06.2017 15:00:00 21,3 13,9 - - - 18 10 W 1012,1 29 12 0,0
22.06.2017 14:00:00 22,1 13,8 - - - 18 10 W 1011,8 26 54 0,0
22.06.2017 13:00:00 22,5 16,2 - - - 15 8 W 1011,4 25 48 0,0
22.06.2017 12:00:00 20,8 17,5 - - - 16 9 WSW 1011,7 10 12 0,0
22.06.2017 11:00:00 18,1 16,8 - - - 5 3 W 1011,6 6 0 1,0
22.06.2017 10:00:00 19,0 16,0 - 21,2 15,7 11 6 WSW 1011,7 7 6 0,0
22.06.2017 09:00:00 18,5 16,0 - - - 9 5 WSW 1011,7 9 0 0,0
22.06.2017 08:00:00 17,7 16,0 - - - 13 7 SW 1011,8 6 30 0,0
22.06.2017 07:00:00 16,8 15,7 - - - 8 4 WSW 1011,4 6 6 0,0
22.06.2017 06:00:00 16,4 16,1 - - - 8 4 SW 1011,2 3,4 0 0,0
22.06.2017 05:00:00 15,6 15,4 - - - 4 2 SSW 1011,2 5 0 0,0
22.06.2017 04:00:00 15,5 15,3 - - - 4 2 S 1011,2 2,0 0 0,0
22.06.2017 03:00:00 15,2 14,7 - - - 2 1 SSE 1011,6 0,5 0 0,0
22.06.2017 02:00:00 16,3 15,7 - - - 2 1 N 1012,1 2,5 0 0,0
22.06.2017 01:00:00 16,8 15,8 - - - 4 2 SW 1012,1 4,5 - 0,0
22.06.2017 00:00:00 17,6 16,7 - - - 4 2 W 1012,3 5 0 0,0
21.06.2017 23:00:00 18,7 16,5 - - - 2 1 SW 1012,4 9 0 0,0
21.06.2017 22:00:00 21,4 17,4 - - - 4 2 SW 1012,5 16 0 0,0
21.06.2017 21:00:00 23,8 18,1 - - - 5 3 SSW 1012,0 29 0 0,0
21.06.2017 20:00:00 27,0 18,6 - - - 8 4 SSW 1012,0 40 54 0,0
21.06.2017 19:00:00 28,5 18,3 - - - 11 6 SSW 1012,1 35 60 0,0
21.06.2017 18:00:00 30,1 19,1 - - - 11 6 SSW 1012,0 35 60 0,0
21.06.2017 17:00:00 31,8 17,9 - - - 13 7 SSE 1012,1 35 60 0,0
21.06.2017 16:00:00 32,8 18,2 - - - 11 6 SSE 1012,4 28 60 0,0
21.06.2017 15:00:00 32,2 16,9 - - - 13 7 SE 1012,9 29 60 0,0
21.06.2017 14:00:00 31,0 17,4 - - - 15 8 ESE 1013,4 22 60 0,0
21.06.2017 13:00:00 30,1 18,3 - - - 13 7 ESE 1013,9 29 60 0,0
21.06.2017 12:00:00 28,8 20,0 - - - 9 5 E 1014,3 21 60 0,0
21.06.2017 11:00:00 26,7 19,5 - - - 9 5 E 1014,7 16 54 0,0
21.06.2017 10:00:00 24,4 18,9 24,4 20,9 15,7 9 5 E 1015,3 13 60 0,0
21.06.2017 09:00:00 22,0 17,6 - - - 11 6 E 1015,5 12 54 0,0
21.06.2017 08:00:00 19,8 17,3 - - - 11 6 NE 1015,9 11 54 0,0
21.06.2017 07:00:00 17,8 16,5 - - - 11 6 NE 1016,0 9 6 0,0
21.06.2017 06:00:00 16,1 15,7 - - - 8 4 NE 1015,9 6 0 0,0
21.06.2017 05:00:00 15,0 14,6 - - - 5 3 NE 1016,2 3,8 0 0,0
21.06.2017 04:00:00 15,3 14,8 - - - 8 4 NNE 1016,5 4,9 0 0,0
21.06.2017 03:00:00 15,2 14,7 - - - 5 3 ENE 1016,8 4,6 0 0,0
21.06.2017 02:00:00 15,7 15,0 - - - 5 3 NE 1017,4 4,0 0 0,0
21.06.2017 01:00:00 16,3 15,2 - - - 5 3 NE 1017,7 4,2 - 0,0
21.06.2017 00:00:00 17,1 15,4 - - - 9 5 ENE 1017,8 7 0 0,0
20.06.2017 23:00:00 17,9 14,9 - - - 9 5 ENE 1017,7 16 0 0,0
20.06.2017 22:00:00 19,7 15,0 - - - 9 5 ENE 1017,6 30 0 0,0
20.06.2017 21:00:00 21,6 16,0 - - - 13 7 ENE 1017,3 30 0 0,0
20.06.2017 20:00:00 23,9 16,5 - - - 16 9 ENE 1016,8 35 54 0,0
20.06.2017 19:00:00 25,4 17,7 - - - 18 10 E 1016,6 40 60 0,0
20.06.2017 18:00:00 27,4 18,7 - - - 22 12 E 1016,4 30 48 0,0
20.06.2017 17:00:00 29,1 17,7 - - - 9 5 E 1016,5 30 54 0,0
20.06.2017 16:00:00 29,2 17,3 - - - 11 6 ENE 1016,8 27 54 0,0
20.06.2017 15:00:00 28,7 16,8 - - - 9 5 ENE 1017,1 35 60 0,0
20.06.2017 14:00:00 28,1 17,2 - - - 11 6 ENE 1017,2 25 60 0,0
20.06.2017 13:00:00 28,4 18,3 - - - 13 7 E 1017,4 27 60 0,0
20.06.2017 12:00:00 27,6 18,1 - - - 9 5 E 1017,6 27 60 0,0
20.06.2017 11:00:00 24,8 17,3 - - - 11 6 E 1018,0 28 30 0,0
20.06.2017 10:00:00 24,8 16,7 24,8 20,7 15,4 13 7 ENE 1017,7 21 54 0,0
20.06.2017 09:00:00 22,3 15,8 - - - 4 2 NE 1017,8 25 42 0,0
20.06.2017 08:00:00 20,2 16,1 - - - 4 2 NE 1017,6 20 54 0,0
20.06.2017 07:00:00 17,4 17,2 - - - 0 0 N 1017,8 6 36 0,0
20.06.2017 06:00:00 13,6 13,4 - - - 0 0 N 1017,6 1,7 0 0,0
20.06.2017 05:00:00 13,4 13,1 - - - 2 1 NW 1017,2 0,7 0 0,0
20.06.2017 04:00:00 14,1 13,6 - - - 0 0 N 1017,2 0,4 0 0,0
20.06.2017 03:00:00 15,1 14,7 - - - 2 1 NNW 1017,2 1,9 0 0,0
20.06.2017 02:00:00 15,6 14,9 - - - 0 0 N 1017,5 3,6 0 0,0
20.06.2017 01:00:00 16,6 15,5 - - - 0 0 N 1017,7 9 - 0,0
20.06.2017 00:00:00 17,7 16,0 - - - 2 1 NW 1017,9 11 0 0,0
19.06.2017 23:00:00 18,9 16,5 - - - 2 1 E 1017,8 20 0 0,0
19.06.2017 22:00:00 19,9 16,4 - - - 2 1 N 1017,8 22 0 0,0
19.06.2017 21:00:00 23,1 16,6 - - - 2 1 W 1017,4 30 0 0,0
19.06.2017 20:00:00 25,7 16,7 - - - 9 5 SW 1017,1 40 54 0,0
19.06.2017 19:00:00 27,2 16,9 - - - 11 6 SW 1016,9 35 54 0,0
19.06.2017 18:00:00 30,0 17,4 - - - 5 3 SE 1016,7 35 60 0,0
19.06.2017 17:00:00 29,9 18,0 - - - 4 2 E 1017,1 40 42 0,0
19.06.2017 16:00:00 29,4 17,4 - - - 8 4 NE 1017,4 40 60 0,0
19.06.2017 15:00:00 29,7 16,3 - - - 9 5 SE 1017,7 30 48 0,0
19.06.2017 14:00:00 30,3 18,7 - - - 5 3 SSE 1018,1 23 60 0,0
19.06.2017 13:00:00 29,0 18,3 - - - 5 3 NW 1018,5 35 60 0,0
19.06.2017 12:00:00 27,8 18,0 - - - 8 4 E 1019,1 45 60 0,0
19.06.2017 11:00:00 26,9 16,5 - - - 9 5 ENE 1019,3 23 60 0,0
19.06.2017 10:00:00 25,8 17,8 25,9 20,0 15,2 4 2 NNE 1019,5 18 60 0,0
19.06.2017 09:00:00 23,6 17,1 - - - 5 3 NE 1019,8 19 60 0,0
19.06.2017 08:00:00 21,8 17,6 - - - 4 2 ENE 1020,2 18 60 0,0
19.06.2017 07:00:00 18,5 18,3 - - - 2 1 NNE 1020,3 14 42 0,0
19.06.2017 06:00:00 14,1 13,9 - - - 0 0 N 1020,6 2,6 0 0,0
19.06.2017 05:00:00 13,7 13,4 - - - 2 1 W 1020,7 5 0 0,0
19.06.2017 04:00:00 14,0 13,5 - - - 0 0 N 1020,9 0,9 0 0,0
19.06.2017 03:00:00 14,6 14,1 - - - 0 0 N 1021,1 5 0 0,0
19.06.2017 02:00:00 15,4 14,9 - - - 0 0 N 1021,3 6 0 0,0
19.06.2017 01:00:00 15,9 15,0 - - - 0 0 N 1021,6 13 - 0,0
19.06.2017 00:00:00 17,1 15,7 - - - 0 0 N 1021,8 25 0 0,0
18.06.2017 23:00:00 18,1 15,6 - - - 0 0 N 1021,8 40 0 0,0
18.06.2017 22:00:00 21,5 16,1 - - - 5 3 SW 1021,6 50 0 0,0
18.06.2017 21:00:00 22,8 16,8 - - - 2 1 SSW 1021,3 45 6 0,0
18.06.2017 20:00:00 25,8 17,2 - - - 8 4 SSW 1021,2 45 60 0,0
18.06.2017 19:00:00 26,7 17,3 - - - 11 6 SW 1021,3 29 60 0,0
18.06.2017 18:00:00 27,4 17,9 - - - 11 6 SW 1021,6 45 60 0,0
18.06.2017 17:00:00 28,7 18,3 - - - 11 6 SSW 1021,6 45 54 0,0
18.06.2017 16:00:00 30,5 17,9 - - - 9 5 ESE 1021,8 2,1 48 0,0
18.06.2017 15:00:00 30,3 18,7 - - - 8 4 SW 1022,2 26 54 0,0
18.06.2017 14:00:00 29,7 20,4 - - - 8 4 S 1022,8 45 42 0,0
18.06.2017 13:00:00 28,1 18,2 - - - 5 3 N 1023,5 30 54 0,0
18.06.2017 12:00:00 27,9 17,5 - - - 8 4 SSW 1024,0 29 60 0,0
18.06.2017 11:00:00 26,8 16,7 - - - 8 4 SW 1024,2 45 60 0,0
18.06.2017 10:00:00 25,3 16,9 25,4 19,4 15,0 4 2 SSW 1024,5 40 60 0,0
18.06.2017 09:00:00 23,6 17,2 - - - 4 2 S 1024,7 35 60 0,0
18.06.2017 08:00:00 22,0 16,5 - - - 2 1 S 1024,9 27 60 0,0
18.06.2017 07:00:00 17,5 16,9 - - - 2 1 SE 1024,9 30 36 0,0
18.06.2017 06:00:00 13,6 13,4 - - - 4 2 W 1025,0 15 0 0,0
18.06.2017 05:00:00 12,8 12,5 - - - 0 0 N 1024,9 6 0 0,0
18.06.2017 04:00:00 13,2 12,8 - - - 2 1 WSW 1025,0 8 0 0,0

tt = temperature
td = dewpoint
tt 5cm = temperature 5cm
tt -20cm = temperature -20cm
tt -100cm = temperature -100cm
ff = wind speed
dd = wind direction
ppp = reduced air pressure
vv = visibility
sd = sunshine duration
rr = precipitation

Next stations